ECHOSTAR 19 (41893 NORAD) Tracking and Keplerian Element Data

This shows tracking and keplerian element data for the satellite.

Feedback or suggestion? Click here.




ElementValue
Catalog41893
NameECHOSTAR 19
Epoch Orbit852
Epoch Day111.64746781
Epoch Year2019
RAAN219.6146
Inclination0.0176
Eccentricity0.0001527
Argument of Perigee193.2671
Mean Anonmoly292.5176
Mean Motion1.00273456
Decay Rate-1.56E-06
L11 41893U 16079A 19111.64746781 -.00000156 00000-0 00000+0 0 9996
L22 41893 0.0176 219.6146 0001527 193.2671 292.5176 1.00273456 8529

Live tracking and technical data element details for ECHOSTAR 19 (NORAD 41893). ECHOSTAR 19 can be tracked NOW for your location showing map with azimuth and elevation plus other details from your city location.

Track the satellite on the map from your city or location and see movement details for azimuth, elevation, latitude, longitude, range, height, and movement on the map or in text.







IsCatalogInMostPopularTable: catalog: 41893, numindb: 224
Update: records affected: 1



GetName: 41893 ECHOSTAR 19

Hit Count: updated at: Tue, 23 Apr 2019 02:05:17 GMT